Location: Eurasberg
(48.3353°N, 11.0839°E)
Time: 13:57:57
(UTC+00:00)

Timation 1 Rocket - Pass Details

Date: 26 April 2026
Orbit: 895 x 908 km, 70.0° (Epoch: 14 May)

Event Time Altitude Azimuth Distance (km) Brightness Sun altitude
Exits shadow 22:10:15 51° 99° (E) 1,128 4.6 -26.3°
Drops below altitude 10° 22:15:42 10° 37° (NE) 2,602 7.2 -26.6°
Sets 22:18:16 0° 33° (NNE) 3,548 8.0 -26.7°
